Date String (YYYY-MM-DD hh:mm:ss) UTC,Instrument flags,Ambient pressure (hPa),Sample flow (lpm),Bypass flow (lpm),Sample temperature (°C),Ambient temperature (°C),ASC tube jacket temperature (°C),LED temperature (°C),Box temperature (°C),Sample RH (%),Span deviation,Mass concentration (μg/m³),Mass concentration (μg/m³),Mass concentration (μg/m³)
DateTimeUTC,F1_M11,P_M11,Q1_M11,Q2_M11,T1_M11,T2_M11,T3_M11,T4_M11,T5_M11,U1_M11,ZSPAN_M11,X2_M11,X0_M11,X1_M11
2023-03-04 13:00:00,,0821.2,5.02,0.00,22.3,20.7,00.0,31.1,24.0,15.6,-000.6,0009.23,0011.23,0009.04
2023-03-04 13:01:00,,0821.2,5.00,0.00,22.3,20.6,00.0,31.1,23.9,15.6,-000.7,0009.23,0011.14,0009.01
2023-03-04 13:02:00,,0821.2,5.00,0.00,22.3,20.4,00.0,31.1,23.9,15.6,-000.7,0009.22,0011.18,0008.98
2023-03-04 13:03:00,,0821.2,4.99,0.00,22.2,20.4,00.0,31.0,23.8,15.6,-000.8,0009.22,0011.20,0008.97
2023-03-04 13:04:00,,0821.1,5.01,0.00,22.2,20.4,00.0,31.0,23.8,15.6,-000.7,0009.19,0011.19,0008.94
2023-03-04 13:05:00,,0821.1,5.00,0.00,22.2,20.4,00.0,31.0,23.8,15.6,-000.6,0009.15,0011.15,0008.91
2023-03-04 13:06:00,,0821.1,5.01,0.00,22.2,20.4,00.0,31.0,23.8,15.6,-000.6,0009.13,0011.10,0008.88
2023-03-04 13:07:00,,0821.1,5.03,0.00,22.2,20.4,00.0,31.0,23.8,15.6,-000.5,0009.07,0011.03,0008.83
2023-03-04 13:08:00,,0821.1,4.99,0.00,22.1,20.4,00.0,31.0,23.8,15.6,-000.7,0009.04,0010.99,0008.81
2023-03-04 13:09:00,,0821.2,5.02,0.00,22.2,20.9,00.0,31.0,23.9,15.6,-001.0,0009.07,0011.07,0008.80
2023-03-04 13:10:00,,0821.2,5.01,0.00,22.2,22.0,00.0,31.0,24.1,15.5,-000.9,0009.07,0011.09,0008.80
2023-03-04 13:11:00,,0821.1,5.02,0.00,22.4,22.9,00.0,31.0,24.3,15.4,-000.9,0009.07,0011.10,0008.80
2023-03-04 13:12:00,,0821.1,5.00,0.00,22.4,22.7,00.0,31.0,24.3,15.3,-001.4,0009.07,0011.08,0008.81
2023-03-04 13:13:00,,0821.1,5.00,0.00,22.4,22.3,00.0,31.0,24.3,15.3,-001.5,0009.08,0011.07,0008.83
2023-03-04 13:14:00,,0821.2,4.97,0.00,22.4,22.0,00.0,31.1,24.3,15.3,-001.2,0009.11,0011.06,0008.87
2023-03-04 13:15:00,,0821.2,5.00,0.00,22.4,21.7,00.0,31.1,24.2,15.3,-001.1,0009.18,0011.12,0008.93
2023-03-04 13:16:00,,0821.1,5.00,0.00,22.4,21.5,00.0,31.1,24.2,15.3,-001.2,0009.23,0011.19,0008.98
2023-03-04 13:17:00,,0821.1,5.01,0.00,22.4,21.3,00.0,31.1,24.2,15.3,-001.3,0009.28,0011.29,0009.02
2023-03-04 13:18:00,,0821.1,5.00,0.00,22.4,21.1,00.0,31.1,24.1,15.4,-001.3,0009.34,0011.38,0009.07
2023-03-04 13:19:00,,0821.1,5.00,0.00,22.4,20.9,00.0,31.1,24.0,15.3,-001.3,0009.39,0011.42,0009.13
2023-03-04 13:20:00,,0821.2,5.01,0.00,22.3,20.7,00.0,31.1,24.0,15.3,-001.1,0009.41,0011.44,0009.17
2023-03-04 13:21:00,,0821.2,5.00,0.00,22.3,20.6,00.0,31.1,23.9,15.3,-001.1,0009.46,0011.50,0009.21
2023-03-04 13:22:00,,0821.3,4.98,0.00,22.3,20.4,00.0,31.1,23.9,15.3,-001.1,0009.50,0011.57,0009.24
2023-03-04 13:23:00,,0821.3,4.99,0.00,22.2,20.4,00.0,31.1,23.8,15.4,-000.8,0009.52,0011.59,0009.27
2023-03-04 13:24:00,,0821.2,4.99,0.00,22.2,20.4,00.0,31.0,23.8,15.3,-000.7,0009.54,0011.61,0009.28
2023-03-04 13:25:00,,0821.2,5.01,0.00,22.2,20.4,00.0,31.0,23.8,15.3,-000.9,0009.58,0011.70,0009.30
2023-03-04 13:26:00,,0821.1,4.99,0.00,22.2,20.3,00.0,31.0,23.8,15.4,-000.9,0009.57,0011.74,0009.29
2023-03-04 13:27:00,,0821.2,5.01,0.00,22.2,20.3,00.0,31.0,23.8,15.4,-000.9,0009.56,0011.77,0009.26
2023-03-04 13:28:00,,0821.2,5.00,0.00,22.2,21.1,00.0,31.0,23.9,15.3,-001.1,0009.58,0011.78,0009.27
2023-03-04 13:29:00,,0821.1,5.02,0.00,22.3,22.2,00.0,31.0,24.2,15.2,-001.1,0009.58,0011.78,0009.27
2023-03-04 13:30:00,,0821.1,4.96,0.00,22.4,22.8,00.0,31.0,24.3,15.2,-000.8,0009.57,0011.77,0009.27
2023-03-04 13:31:00,,0821.2,4.99,0.00,22.4,22.4,00.0,31.1,24.3,15.1,-000.8,0009.53,0011.66,0009.23
2023-03-04 13:32:00,,0821.3,4.99,0.00,22.4,21.9,00.0,31.1,24.1,15.1,-001.0,0009.49,0011.58,0009.21
2023-03-04 13:33:00,,0821.4,5.01,0.00,22.4,21.4,00.0,31.1,24.0,15.1,-001.3,0009.46,0011.50,0009.20
2023-03-04 13:34:00,,0821.3,5.01,0.00,22.3,21.0,00.0,31.1,24.0,15.1,-001.5,0009.41,0011.40,0009.17
2023-03-04 13:35:00,,0821.3,5.00,0.00,22.3,20.7,00.0,31.1,23.9,15.2,-001.5,0009.36,0011.30,0009.14
2023-03-04 13:36:00,,0821.4,5.00,0.00,22.2,20.5,00.0,31.0,23.8,15.2,-001.7,0009.31,0011.19,0009.12
2023-03-04 13:37:00,,0821.4,5.00,0.00,22.2,20.3,00.0,31.0,23.7,15.2,-002.0,0009.27,0011.08,0009.11
2023-03-04 13:38:00,,0821.4,5.00,0.00,22.2,20.2,00.0,31.0,23.7,15.2,-002.0,0009.24,0010.99,0009.12
2023-03-04 13:39:00,,0821.4,4.99,0.00,22.1,20.1,00.0,31.0,23.7,15.2,-001.9,0009.22,0010.92,0009.11
2023-03-04 13:40:00,,0821.4,5.00,0.00,22.1,20.1,00.0,31.0,23.6,15.2,-001.9,0009.19,0010.89,0009.08
2023-03-04 13:41:00,,0821.4,5.01,0.00,22.1,21.2,00.0,30.9,23.8,15.1,-002.0,0009.17,0010.86,0009.06
2023-03-04 13:42:00,,0821.4,4.99,0.00,22.2,22.3,00.0,30.9,24.1,15.0,-002.3,0009.20,0010.92,0009.08
2023-03-04 13:43:00,,0821.4,5.03,0.00,22.3,22.6,00.0,31.0,24.2,14.9,-002.3,0009.20,0010.98,0009.08
2023-03-04 13:44:00,,0821.4,4.99,0.00,22.3,22.1,00.0,31.0,24.1,14.8,-002.3,0009.20,0011.01,0009.08
2023-03-04 13:45:00,,0821.4,4.99,0.00,22.3,21.5,00.0,31.0,23.9,14.8,-002.1,0009.21,0011.05,0009.08
2023-03-04 13:46:00,,0821.4,4.99,0.00,22.2,21.0,00.0,31.0,23.8,14.9,-002.1,0009.26,0011.17,0009.10
2023-03-04 13:47:00,,0821.5,5.00,0.00,22.2,20.7,00.0,31.0,23.7,14.9,-002.1,0009.29,0011.25,0009.11
2023-03-04 13:48:00,,0821.5,5.01,0.00,22.1,20.4,00.0,31.0,23.6,14.9,-002.0,0009.31,0011.29,0009.13
2023-03-04 13:49:00,,0821.6,5.01,0.00,22.1,20.3,00.0,31.0,23.6,14.9,-002.1,0009.33,0011.36,0009.12
2023-03-04 13:50:00,,0821.6,5.00,0.00,22.1,20.1,00.0,30.9,23.6,14.9,-002.0,0009.35,0011.40,0009.13
2023-03-04 13:51:00,,0821.6,5.00,0.00,22.0,20.1,00.0,30.9,23.5,14.9,-001.9,0009.37,0011.40,0009.16
2023-03-04 13:52:00,,0821.5,5.02,0.00,22.0,20.4,00.0,30.9,23.6,15.0,-001.9,0009.40,0011.42,0009.21
2023-03-04 13:53:00,,0821.5,4.98,0.00,22.1,21.7,00.0,30.9,23.9,14.9,-001.7,0009.44,0011.42,0009.24
2023-03-04 13:54:00,,0821.6,5.02,0.00,22.2,22.7,00.0,30.9,24.1,14.9,-001.5,0009.50,0011.45,0009.30
2023-03-04 13:55:00,,0821.7,4.99,0.00,22.3,22.7,00.0,30.9,24.2,14.7,-001.5,0009.56,0011.48,0009.36
2023-03-04 13:56:00,,0821.7,5.00,0.00,22.3,22.2,00.0,31.0,24.2,14.7,-001.9,0009.63,0011.58,0009.42
2023-03-04 13:57:00,,0821.7,4.99,0.00,22.3,21.8,00.0,31.0,24.1,14.7,-002.1,0009.66,0011.58,0009.47
2023-03-04 13:58:00,,0821.7,5.00,0.00,22.3,21.5,00.0,31.0,24.0,14.7,-002.2,0009.71,0011.64,0009.51
2023-03-04 13:59:00,,0821.6,5.01,0.00,22.3,21.2,00.0,31.0,23.9,14.8,-002.1,0009.75,0011.70,0009.53
